www.pogodaiklimat.ru

Погода и климат >> Архив погоды >> Испания >> Madrid


АРХИВ ПОГОДЫ в Madrid

Время (UTC), дата Ветер
(напр.,м/с)
 
Видим.   Явления Облачность Т
(С)
Тd
(С)
f
(%)
Тe
(С)
Тes
(С)
Комфортность P
(гПа)
Po
(гПа)
Тmin
(С)
Tmax
(С)
R
(мм)
R24
(мм)
S
(см)
17 12.11 СЗ 3 30 км 10/3 2000 м
[Cu Sc Ac trans Cs]
+13.4 +10.9 85 +12 +12 тепло 1017.0 949.6
16 12.11 СВ 1 30 км 8/1 600 м
[Cu Sc Ac und Ci fib]
+14.4 +10.6 78 +15 +15 тепло 1015.8 948.7
18 12.11 С 2 30 км 9/6 1000 м
[Cu Sc Ac trans Cs]
+12.9 +10.3 84 +12 +12 по сезону 1017.9 950.3 +14.5
19 12.11 С 2 30 км 9/6 1000 м
[Cu Sc Ac As Cs]
+12.6 +10.1 85 +12 +12 тепло 1018.5 950.9
20 12.11 С 1 30 км 10/8 1500 м
[Cu Sc Ac trans]
+12.1 +10.2 88 +12 +12 тепло 1019.2 951.4
21 12.11 С 1 30 км н/о +11.9 +10.1 89 +13 +13 тепло 1020.0 952.1
23 12.11 С 2 25 км 9/4 1500 м
[Sc Ac As Cs]
+10.5 +9.5 94 +9 +9 тепло 1021.1 952.8
22 12.11 С 1 30 км 10/8 1000 м
[Cu Sc Ac trans]
+11.8 +10.2 90 +12 +12 тепло 1020.5 952.6
00 13.11 С 2 20 км 8/4 1500 м
[Sc Ac As Cs]
+10.4 +9.4 94 +9 +9 тепло 1021.5 953.1
01 13.11 СЗ 1 20 км 9/3 2000 м
[Sc Ac As Cs]
+9.1 +8.4 95 +8 +8 тепло 1022.3 953.5
02 13.11 В 1 30 км 3/3 1500 м
[Sc]
+8.4 +7.8 96 +7 +7 тепло 1022.6 953.6
03 13.11 штиль 0 20 км 3/3 1500 м
[Sc]
+8.2 +7.9 98 +7 +7 по сезону 1022.7 953.7
05 13.11 С 2 12 км 6/4 1000 м
[Sc Ci sp]
+8.4 +8.3 99 +7 +7 тепло 1023.4 954.4
04 13.11 С 1 12 км 5/1 1500 м
[Sc Ci sp]
+7.6 +7.3 98 +6 +6 тепло 1023.0 953.8
06 13.11 С 1 10 км 5/3 1000 м
[Sc Ci sp]
+7.3 +6.8 97 +6 +6 по сезону 1024.1 954.7 +7.3
07 13.11 С 1 12 км 5/0
[Ac trans Ci sp]
+6.7 +6.2 97 +5 +5 по сезону 1024.8 955.3
08 13.11 С 1 12 км 5/0
[Ac As Ci sp]
+7.7 +7.4 98 +7 +7 по сезону 1025.3 956.0
09 13.11 С 1 15 км 8/0
[Ac As Cs]
+9.1 +8.2 94 +9 +11 по сезону 1025.4 956.4
11 13.11 ЮВ 2 25 км 9/0
[Ac As Cs]
+11.6 +9.0 84 +10 +14 по сезону 1025.1 956.8
10 13.11 В 1 20 км 9/0
[Ac As Cs]
+10.3 +8.8 90 +11 +13 по сезону 1025.5 956.8
12 13.11 СЗ 2 25 км 9/0
[Ac As Cs]
+12.8 +9.6 81 +12 +16 по сезону 1023.8 955.9
13 13.11 СЗ 2 30 км 9/0
[Ac As Cs]
+15.4 +10.8 74 +15 +19 тепло 1022.5 955.2
14 13.11 СВ 1 30 км 9/0
[Ac As Cs]
+17.1 +10.3 64 +19 +22 тепло 1021.9 955.0
15 13.11 СВ 1 30 км 8/0
[Ac As Ci sp]
+17.7 +9.8 60 +19 +21 тепло 1021.7 955.0
17 13.11 В 1 30 км 3/0
[Ci fib]
+14.8 +9.9 72 +15 +15 тепло 1022.8 955.3
16 13.11 В 1 н/о н/о +18.0 +9.9 59 +20 +20 тепло 1021.9 955.2
18 13.11 штиль 0 30 км 3/0
[Ci fib]
+12.5 +8.8 78 +12 +12 по сезону 1023.9 955.9 +18.3
19 13.11 Ю 3 30 км 3/0
[Ci fib]
+13.4 +10.2 81 +12 +12 тепло 1024.4 956.6
20 13.11 В 1 30 км ясно +12.6 +9.9 84 +13 +13 тепло 1025.2 957.1
21 13.11 СВ 1 16 км 4/4 600 м
[Cu Sc]
+11.9 +9.7 86 +12 +12 тепло 1025.6 957.3
23 13.11 С 2 20 км 5/5 600 м
[Cu Sc]
+11.5 +9.8 89 +10 +10 тепло 1025.8 957.4
22 13.11 С 3 16 км 4/4 600 м
[Cu Sc]
+11.0 +9.4 90 +9 +9 тепло 1025.9 957.4
00 14.11 Ю 1 13 км 6/6 600 м
[Cu Sc]
+10.2 +8.8 91 +11 +11 тепло 1026.2 957.4
01 14.11 штиль 0 11 км 3/3 600 м
[Cu Sc]
+9.4 +8.5 94 +9 +9 тепло 1026.0 957.1
02 14.11 В 1 8000 м 1/1 600 м
[Cu Sc]
+9.0 +8.1 94 +8 +8 тепло 1025.9 956.9
03 14.11 штиль 0 4200 м дымка 1/1 300 м
[Frnb]
+7.9 +7.1 95 +7 +7 по сезону 1025.8 956.5
05 14.11 штиль 0 5000 м дымка 8/8 600 м
[Cu Sc Ac und Ci sp]
+7.7 +7.1 96 +7 +7 тепло 1025.6 956.2
04 14.11 Ю 1 4500 м дымка ясно +7.5 +6.9 96 +7 +7 тепло 1025.6 956.2
06 14.11 С 2 5000 м дымка 4/1 600 м
[Cu Sc Ci sp]
+6.9 +6.5 97 +5 +5 по сезону 1025.6 956.1 +6.6
07 14.11 С 2 6000 м дымка 8/1 50 м
[St Ac As Ci sp]
+6.6 +6.2 97 +5 +5 по сезону 1025.6 956.0
08 14.11 штиль 0 7000 м дымка 8/1 50 м
[St Ac trans Ci sp]
+6.4 +6.0 97 +5 +5 по сезону 1026.0 956.4
09 14.11 штиль 0 7000 м дымка 5/1 2000 м
[St Ac trans Ci sp]
+8.2 +7.6 96 +7 +9 по сезону 1025.5 956.3
11 14.11 В 2 28 км 5/4 600 м
[Cu Sc Ac trans Ci sp]
+13.9 +10.4 79 +14 +17 тепло 1023.1 955.5
10 14.11 С 1 16 км 6/3
[Cu Sc Ac trans Ci sp]
+10.7 +9.3 91 +10 +12 по сезону 1024.5 956.0
12 14.11 В 2 28 км 8/6 600 м
[Cu Sc Ac trans Ci sp]
+15.1 +10.7 75 +15 +17 тепло 1021.6 954.3
13 14.11 СВ 2 30 км 9/5 600 м
[Cu Sc Ac trans Ci sp]
+16.0 +10.4 69 +16 +18 тепло 1020.5 953.5
14 14.11 СВ 1 22 км 8/3 600 м
[Cu Sc Ac trans Ci sp]
+16.7 +10.7 68 +18 +20 тепло 1019.6 952.8
15 14.11 С 2 30 км 8/3 1000 м
[Cu Sc Ac trans Ci sp]
+17.1 +10.5 65 +18 +19 тепло 1019.1 952.4
17 14.11 С 1 20 км 10/8 1000 м
[Cu Sc Ac trans Ci sp]
+14.4 +12.3 87 +15 +15 тепло 1019.0 951.7
16 14.11 СВ 1 28 км 8/4 1000 м
[Cu Sc Ac trans Ci sp]
+16.4 +11.5 73 +18 +18 тепло 1018.9 952.1
18 14.11 ЮВ 1 19 км 9/8 1000 м
[Cu Sc Ac trans Ci sp]
+14.4 +11.7 84 +15 +15 тепло 1019.4 952.1 +17.3 0.0
19 14.11 СВ 2 26 км 9/8 600 м
[Cu Sc Ac trans Ci sp]
+14.2 +11.3 83 +14 +14 тепло 1019.4 952.0
20 14.11 СВ 2 20 км 10/9 1000 м
[Cu Sc Ac trans Ci sp]
+13.9 +11.5 85 +14 +14 тепло 1019.3 951.9
21 14.11 СВ 1 12 км слабая морось 10/9 600 м
[Cu Sc Ac trans Ci sp]
+13.0 +11.7 92 +13 +13 тепло 1019.8 952.2 0.6
23 14.11 С 2 7000 м дымка 9/9 1000 м
[Cu Sc Ac trans Ci sp]
+12.1 +11.2 94 +11 +11 тепло 1019.4 951.6
22 14.11 штиль 0 9000 м 9/8 1000 м
[Cu Sc Ac trans Ci sp]
+12.2 +11.4 95 +12 +12 тепло 1019.8 952.0
00 15.11 СЗ 1 8000 м дымка 9/8 1000 м
[Cu Sc Ac trans Ci sp]
+11.6 +10.7 94 +11 +11 тепло 1019.3 951.4 0.0
01 15.11 С 1 10 км 9/8 1000 м
[Cu Sc Ac trans Ci sp]
+12.0 +11.0 94 +12 +12 тепло 1019.0 951.2
02 15.11 С 2 17 км 9/9 1000 м
[Cu Sc]
+11.9 +10.9 94 +11 +11 тепло 1018.6 950.8
03 15.11 С 2 15 км 9/9 1000 м
[Cu Sc]
+11.8 +10.7 93 +11 +11 тепло 1017.8 950.1
05 15.11 штиль 0 13 км 9/9 1000 м
[Sc]
+11.4 +10.5 94 +11 +11 тепло 1018.1 950.2
04 15.11 штиль 0 14 км 9/9 1000 м
[Sc]
+11.6 +10.7 94 +11 +11 тепло 1018.0 950.2
06 15.11 СВ 1 7000 м 9/9 600 м
[Sc]
+11.0 +10.2 95 +11 +11 тепло 1018.3 950.3 +11.0
07 15.11 штиль 0 15 км 5/4 1000 м
[Sc Ac lent Ci sp]
+10.2 +9.2 94 +9 +9 тепло 1018.9 950.7
08 15.11 СВ 1 17 км 8/5 1500 м
[Sc Ac lent Ci sp]
+10.6 +9.3 92 +11 +11 тепло 1019.3 951.1
09 15.11 штиль 0 24 км 9/6 1500 м
[Sc Ac und Ci sp]
+11.9 +9.8 87 +11 +12 тепло 1019.4 951.6
11 15.11 СВ 2 30 км 4/4 2000 м
[Sc Ac lent Ci sp]
+16.2 +10.1 67 +16 +19 тепло 1018.1 951.3
10 15.11 СВ 2 29 км 6/4 1000 м
[Sc Ac und Ci sp]
+13.8 +9.8 77 +14 +15 тепло 1018.9 951.4
12 15.11 СВ 2 20 км 5/3 1000 м
[Sc Ac trans]
+16.5 +9.3 62 +17 +20 тепло 1017.4 950.7
13 15.11 СВ 1 25 км 5/3 1500 м
[Sc Ac trans Ci sp]
+16.5 +9.5 63 +17 +21 тепло 1016.7 950.0
14 15.11 штиль 0 30 км 8/5 1000 м
[Cu med, cong Ac lent Ci ing]
+16.6 +10.3 66 +17 +18 тепло 1016.2 949.6
15 15.11 З 1 30 км осадки на расстоянии 9/9 1000 м
[Cu med, cong Ac lent Ci ing]
+17.7 +9.9 60 +19 +19 тепло 1015.7 949.4
17 15.11 Ю 2 29 км в посл. час ливневой дождь 9/8 1500 м
[Cu med, cong Ac cuf Ci ing]
+13.3 +11.5 89 +13 +13 тепло 1017.1 949.7
16 15.11 Ю 4 20 км н/о +14.6 +11.7 83 +13 +13 тепло 1016.9 949.8
18 15.11 З 1 25 км 6/4 1500 м
[Cu med, cong Ac cuf Ci sp]
+12.1 +11.0 93 +12 +12 по сезону 1017.8 950.1 +18.1 0.6
19 15.11 С 2 26 км 6/4 1000 м
[Cu med, cong Ac cuf Ci sp]
+12.3 +11.2 93 +12 +12 тепло 1018.3 950.7
20 15.11 С 2 29 км 9/8 1500 м
[Cu med, cong Ac cuf Ci sp]
+12.5 +11.5 94 +11 +11 тепло 1018.6 951.0
21 15.11 С 2 25 км 9/3 1500 м
[Cu med, cong Ac cuf Ci sp]
+12.3 +11.2 93 +12 +12 тепло 1019.1 951.4
23 15.11 штиль 0 30 км 10/10 600 м
[Sc]
+12.5 +11.0 91 +12 +12 тепло 1019.8 952.1
22 15.11 С 2 30 км 8/4 1000 м
[Sc Ac lent Ci sp]
+12.8 +11.2 90 +12 +12 тепло 1019.7 952.1
00 16.11 С 1 18 км слабая морось 10/10 600 м
[Cu Sc]
+12.6 +11.1 91 +13 +13 тепло 1019.9 952.2 0.0
01 16.11 С 1 9000 м дымка {морось} 9/9 600 м
[Cu Sc]
+12.4 +11.4 94 +12 +12 тепло 1019.6 951.9
02 16.11 С 2 7000 м н/о +12.4 +11.5 94 +11 +11 тепло 1019.4 951.7
03 16.11 С 2 4000 м слабый дождь {морось} 9/9 600 м
[Cu Sc]
+12.1 +11.6 97 +11 +11 тепло 1019.1 951.4 1
05 16.11 штиль 0 7000 м дымка {дождь, морось} 9/6 600 м
[Cu Sc Ac lent Cs]
+11.8 +11.1 95 +11 +11 тепло 1019.0 951.2
04 16.11 С 1 5000 м дымка {дождь, морось} 9/9 600 м
[Cu Sc Cs]
+12.1 +11.7 97 +12 +12 тепло 1018.8 951.1
06 16.11 СЗ 2 5000 м дымка 9/6 600 м
[Sc Ac lent Ci sp]
+11.1 +10.4 95 +10 +10 тепло 1019.1 951.1 +11.1 0.0
07 16.11 СЗ 1 8000 м дымка 9/5 600 м
[Sc Ac lent Ci sp]
+11.1 +10.5 96 +11 +11 тепло 1019.6 951.6
08 16.11 С 1 6000 м дымка 9/4 600 м
[Sc Ac lent Ci sp]
+11.0 +10.5 97 +11 +11 тепло 1020.0 951.9
09 16.11 штиль 0 7000 м дымка 10/10 600 м
[Cu Sc Ac As]
+11.5 +10.9 96 +11 +11 тепло 1020.1 952.1
11 16.11 СЗ 1 25 км 9/4 1500 м
[Cu Sc Ac lent Ci fib]
+13.4 +11.5 88 +14 +15 тепло 1019.6 952.0
10 16.11 штиль 0 20 км 9/6 600 м
[Cu Sc Ac As]
+12.7 +11.4 92 +12 +13 по сезону 1019.8 952.2
12 16.11 штиль 0 30 км 9/8 1500 м
[Cu Sc Ac lent]
+14.4 +11.2 81 +14 +15 тепло 1018.6 951.3 0.3
13 16.11 СЗ 1 30 км 10/10 1500 м
[Cu Sc Ac As Cs]
+14.9 +10.9 77 +15 +15 тепло 1017.9 950.8
14 16.11 С 1 22 км н/о +15.2 +12.4 83 +16 +16 тепло 1017.2 950.3
15 16.11 штиль 0 30 км 8/4 600 м
[Cu med, cong Ac lent Ci fib]
+15.8 +12.3 80 +16 +17 тепло 1016.6 949.8
17 16.11 С 2 30 км н/о +14.4 +11.7 84 +14 +14 тепло 1016.8 949.7
16 16.11 С 1 30 км 9/1 900 м
[Cb cap Ac As Ci sp]
+16.6 +11.3 71 +18 +18 тепло 1016.3 949.7
18 16.11 С 2 30 км 8/8 1000 м
[Cu Sc]
+13.9 +11.0 83 +14 +14 тепло 1017.2 949.9 +17.0
19 16.11 штиль 0 30 км н/о +13.2 +10.8 85 +13 +13 тепло 1017.6 950.1
20 16.11 штиль 0 30 км 9/9 1000 м
[Cu Sc Ac As]
+13.0 +10.9 87 +13 +13 тепло 1017.7 950.2
21 16.11 ЮВ 4 30 км 9/8 1000 м
[Cu Sc Ac As]
+13.8 +10.3 79 +12 +12 тепло 1017.9 950.5
23 16.11 В 1 30 км 8/6 1500 м
[Cu Sc Ac As]
+12.9 +9.2 78 +13 +13 тепло 1017.8 950.3
22 16.11 штиль 0 30 км 9/4 1500 м
[Cu Sc Ac As]
+13.5 +9.4 76 +13 +13 тепло 1018.0 950.5
00 17.11 В 1 30 км 8/6 2000 м
[Cu Sc Ac As]
+13.0 +9.1 77 +13 +13 тепло 1017.7 950.1
01 17.11 С 1 30 км 6/5 2000 м
[Cu Sc Ac As]
+12.2 +8.8 80 +12 +12 тепло 1017.8 950.1
02 17.11 С 2 19 км н/о +11.5 +9.9 90 +10 +10 тепло 1017.8 950.0
03 17.11 С 1 16 км 5/5 2000 м
[Cu Sc]
+10.8 +9.7 93 +10 +10 тепло 1017.7 949.7
05 17.11 С 1 30 км 8/8 1500 м
[Cu Sc]
+10.4 +9.0 91 +10 +10 тепло 1017.5 949.4
04 17.11 СЗ 2 21 км 6/6 1500 м
[Cu Sc]
+10.9 +9.8 93 +9 +9 тепло 1017.6 949.6
06 17.11 СВ 2 30 км 9/3 600 м
[Sc Ac As]
+10.0 +8.0 87 +8 +8 тепло 1017.8 949.6 +10.0
07 17.11 ЮВ 2 30 км 9/9 600 м
[Cu Sc]
+9.5 +7.7 89 +8 +8 тепло 1018.0 949.6
08 17.11 В 1 23 км 5/5 300 м
[Cu Sc]
+9.5 +7.5 87 +9 +9 тепло 1018.3 949.9
09 17.11 В 1 30 км 5/4 600 м
[Sc Ac und Ci fib]
+11.8 +8.1 78 +12 +13 тепло 1017.6 949.8
11 17.11 ЮВ 1 24 км 4/4 1000 м
[Cu hum Ac trans]
+15.3 +9.6 69 +17 +20 тепло 1015.9 949.0
10 17.11 В 1 30 км 3/3 600 м
[Sc Ac trans Ci fib]
+13.7 +9.0 73 +14 +17 тепло 1016.6 949.3
12 17.11 В 2 30 км 6/3 1000 м
[Cu hum Ac und Ci fib]
+15.6 +9.4 67 +16 +18 тепло 1014.9 948.1
13 17.11 Ю 1 30 км 6/5 1000 м
[Cu Sc Ac und Ci fib]
+16.6 +9.0 61 +17 +20 тепло 1013.4 947.0
14 17.11 С 1 19 км 6/6 600 м
[Cu Sc]
+17.1 +9.3 60 +18 +20 тепло 1012.6 946.3
15 17.11 СЗ 1 24 км 6/3 600 м
[Sc Ac und]
+16.8 +8.7 59 +18 +19 тепло 1012.1 945.8
17 17.11 С 1 30 км 5/5 1000 м
[Cu Sc]
+15.1 +9.6 70 +16 +16 тепло 1012.0 945.3
16 17.11 С 3 30 км 8/8 600 м
[Cu Sc]
+15.8 +9.6 67 +15 +15 тепло 1011.8 945.3
18 17.11 С 1 30 км 8/8 1000 м
[Cu Sc]
+14.4 +9.5 72 +15 +15 тепло 1011.8 945.0 +17.4
19 17.11 СВ 1 30 км 9/6 1000 м
[Cu Sc Ac As Ci sp]
+13.5 +9.5 77 +14 +14 тепло 1012.1 945.0
20 17.11 СВ 2 30 км 5/5 1000 м
[Cu Sc Ac As Ci sp]
+12.3 +8.9 80 +12 +12 тепло 1012.0 944.7
21 17.11 СЗ 1 19 км 5/5 1000 м
[Cu Sc Ac As Ci sp]
+11.1 +9.0 87 +12 +12 тепло 1012.4 944.8
23 17.11 С 2 9000 м н/о +9.3 +8.4 94 +8 +8 тепло 1012.1 944.1
22 17.11 С 1 12 км 4/4 1000 м
[Cu Sc Ac As Ci fib]
+9.8 +8.2 90 +10 +10 тепло 1012.4 944.5
00 18.11 С 1 9000 м дымка 5/4 600 м
[Cu Sc Ac As Ci sp]
+9.0 +8.4 96 +8 +8 по сезону 1011.9 943.9
01 18.11 С 2 11 км 8/8 600 м
[Cu Sc Ci sp]
+8.9 +7.9 93 +7 +7 тепло 1010.9 942.9
02 18.11 штиль 0 13 км 5/4 600 м
[Cu Sc Ci sp]
+8.6 +7.9 95 +8 +8 тепло 1010.6 942.5
03 18.11 С 2 14 км 9/9 600 м
[Cu Sc Ci sp]
+9.6 +8.5 93 +8 +8 тепло 1009.7 942.0
05 18.11 С 1 18 км 10/10 1000 м
[Cu Sc]
+9.8 +8.7 93 +9 +9 тепло 1008.2 940.6
04 18.11 С 2 17 км 9/9 600 м
[Cu Sc]
+9.8 +8.4 91 +9 +9 тепло 1008.7 941.1
06 18.11 С 2 25 км 9/9 600 м
[Cu Sc]
+10.2 +8.7 90 +9 +9 тепло 1007.8 940.2 +8.4
07 18.11 С 2 25 км 10/10 600 м
[Cu Sc]
+10.2 +8.4 89 +9 +9 тепло 1007.7 940.1
08 18.11 СВ 1 19 км н/о +10.4 +8.8 90 +10 +10 тепло 1007.6 940.1
09 18.11 С 1 28 км 9/9 1000 м
[Sc Ac As Ci sp]
+11.5 +8.9 84 +12 +12 тепло 1007.2 940.0
11 18.11 СВ 1 30 км 9/9 600 м
[Cu Sc]
+12.1 +9.2 82 +12 +13 тепло 1006.3 939.3
10 18.11 В 2 30 км 10/10 600 м
[Cu Sc]
+12.2 +8.5 78 +12 +12 тепло 1006.9 939.9
12 18.11 ЮВ 2 30 км 10/10 1000 м
[Cu Sc]
+13.3 +8.5 73 +13 +13 тепло 1004.9 938.3
13 18.11 ЮВ 6 30 км 10/10 1000 м
[Cu Sc]
+13.4 +8.0 70 +11 +11 тепло 1004.4 937.8
14 18.11 В 5 30 км 10/10 1000 м
[Cu Sc]
+13.2 +7.9 70 +11 +11 по сезону 1004.0 937.4
15 18.11 В 3 16 км морось 10/10 1000 м
[Frnb]
+11.5 +9.0 85 +10 +10 по сезону 1004.3 937.3 0.3
17 18.11 СВ 1 8000 м слабый дождь {морось} 10/10 600 м
[Frnb]
+10.6 +9.7 94 +10 +10 тепло 1004.3 937.1
16 18.11 В 1 10 км слабый дождь {морось} 10/10 1000 м
[Frnb]
+11.1 +9.7 91 +11 +11 тепло 1004.3 937.2
18 18.11 С 2 7000 м слабый дождь {морось} 10/10 1000 м
[Frnb]
+10.3 +9.5 95 +9 +9 по сезону 1004.0 936.8 +13.5 4
19 18.11 СВ 1 9000 м дождь 10/10 600 м
[Frnb]
+10.3 +9.6 95 +10 +10 тепло 1004.3 937.0
20 18.11 СВ 1 7000 м слабый дождь 10/10 300 м
[Frnb]
+10.2 +9.7 97 +10 +10 тепло 1004.4 937.1
21 18.11 В 1 4000 м дождь 10/10 300 м
[Frnb]
+10.2 +9.6 96 +10 +10 тепло 1004.7 937.4 11
23 18.11 С 1 12 км слабый дождь {морось} 10/10 600 м
[Frnb]
+9.5 +8.6 94 +9 +9 тепло 1005.0 937.5
22 18.11 В 2 8000 м слабый дождь {морось} 10/10 600 м
[Frnb]
+9.8 +8.7 93 +8 +8 тепло 1004.9 937.5
00 19.11 С 1 12 км слабый дождь {морось} 10/10 600 м
[Sc]
+9.4 +8.9 97 +9 +9 тепло 1004.9 937.4 2
01 19.11 С 2 9000 м слабый дождь {морось} 10/10 600 м
[Sc]
+9.3 +8.7 96 +7 +7 тепло 1004.6 937.1
02 19.11 С 2 15 км в посл. час дождь {морось} 10/10 1000 м
[Sc]
+9.1 +8.4 95 +7 +7 тепло 1004.4 936.8
03 19.11 С 2 20 км в посл. час дождь {морось} 10/10 1000 м
[Cu Sc]
+9.0 +8.4 96 +8 +8 тепло 1004.1 936.5 0.4
05 19.11 СЗ 3 30 км 10/9 1000 м
[Cu Sc]
+9.4 +8.3 93 +7 +7 тепло 1003.7 936.2
04 19.11 С 3 30 км 10/10 1000 м
[Cu Sc]
+9.3 +8.7 96 +7 +7 тепло 1003.7 936.2
06 19.11 СЗ 3 30 км 9/9 1000 м
[Cu Sc]
+9.1 +8.1 93 +7 +7 тепло 1003.6 936.1 +8.9
07 19.11 С 3 30 км 9/9 1000 м
[Cu Sc]
+9.1 +8.2 94 +7 +7 тепло 1003.6 936.1
08 19.11 С 2 30 км 9/9 1000 м
[Cu Sc]
+9.2 +8.0 92 +7 +7 по сезону 1003.8 936.3
09 19.11 С 3 30 км 9/9 1000 м
[Cu Sc]
+10.0 +8.2 89 +8 +8 по сезону 1003.8 936.5
11 19.11 С 1 30 км 8/4 1500 м
[Sc Ac As]
+12.1 +7.9 75 +12 +14 тепло 1002.8 936.0
10 19.11 С 2 30 км 9/9 1500 м
[Cu Sc Ac trans]
+11.4 +7.8 79 +10 +11 по сезону 1003.3 936.3
12 19.11 С 1 30 км 9/5 1000 м
[Cu Sc Ac As]
+12.9 +7.8 71 +13 +14 тепло 1001.9 935.4
13 19.11 З 1 30 км 10/10 1000 м
[Cu Sc]
+13.8 +7.2 64 +14 +14 тепло 1001.2 934.9
14 19.11 СЗ 1 30 км 10/10 1000 м
[Sc]
+13.5 +7.4 67 +15 +15 тепло 1000.8 934.5
15 19.11 Ю 3 30 км 10/9 1000 м
[Cu Sc Ac trans]
+13.2 +7.4 68 +12 +12 тепло 1000.8 934.4
16 19.11 ЮЗ 3 14 км слабая морось 10/10 600 м
[Cu Sc]
+12.6 +7.5 71 +11 +11 тепло 1001.0 934.5

 

Местоположение метеостанции Madrid (Испания): широта 40.45 долгота -3.55 высота над уровнем моря 582 м.

В архиве по умолчанию представлена погода в Madrid за последнюю неделю. Архивные данные за месяц целиком и за предыдущие месяцы, начиная с января 2011 года, Вы можете получить, выбрав интересующий диапазон дат из раскрывающегося списка и нажав кнопку "Ввод!".


*Определитесь, кто Вы:
робот инопланетянин человек

Внимание! Время в таблицах - всемирное. Для получения местного времени необходимо прибавить поправку, которая в Madrid равна 1 ч.

Смотрите также архив погоды в соседних городах и на ближайших метеорологических станциях:

Погода в Madrid Retiro (Испания) (12 км)
Погода в Madrid Universitaria (Испания) (14 км)
Погода в Madrid Airport (Испания) (22 км)
Погода в Madri-Colmenar (Испания) (33 км)
Погода в Guadalajara (Испания) (39 км)
Погода в Navacerrada (Испания) (54 км)
Погода в Segovia (Испания) (74 км)
Погода в Toledo (Испания) (76 км)
Погода в Avila (Испания) (100 км)
Погода в Cuenca (Испания) (128 км)

Пояснения к столбцам:

Ветер - указаны скорость ветра в м/с - средняя за 10 мин, порывы в срок и между сроками (в фигурных скобках) и направление, откуда дует ветер: С - северный, СВ - северо-восточный, В - восточный, ЮВ - юго-восточный, Ю - южный, ЮЗ - юго-западный, З - западный, СЗ - северо-западный.
Видимость - горизонтальная дальность видимости в метрах или километрах. При видимости от 1 до 10 км при отсутствии осадков обычно наблюдается дымка, при ухудшении видимости до 1 км и менее - туман. В сухую погоду видимость может ухудшаться дымом, пылью или мглою.
Явления - указаны атмосферные явления, наблюдавшиеся в срок или в последний час перед сроком; фигурными скобками обозначены явления, наблюдавшиеся между сроками (за 1-3 часа до срока); квадратными скобками обозначены град или гололедные отложения с указанием их диаметра в мм.
Облачность - указаны через наклонную черту общая и нижняя облачность в баллах и высота нижней границы облаков в метрах; квадратными скобками обозначены формы облаков: Ci - перистые, Cs - перисто-слоистые, Cc - перисто-кучевые, Ac - высококучевые, As - высокослоистые, Sc - слоисто-кучевые, Ns - слоисто-дождевые, Cu - кучевые, Cb - кучево-дождевые. Подробнее классификацию облаков см. в Атласе облаков (PDF).
T - Температура воздуха - температура, измеренная на высоте 2 м над землей.
Td - Температура точки росы - температура, при понижении до которой содержащийся в воздухе водяной пар достигнет насыщения.
f - Относительная влажность воздуха - влажноcть воздуха, измеренная на высоте 2 м над землей.
Te - Эффективная температура - температура, которую ощущает одетый по сезону человек в тени. Характеристика душности погоды. При расчете учитывается влияние влажности воздуха и скорости ветра на теплоощущения человека.
Tes - Эффективная температура на солнце - температура, которую ощущает человек, с поправкой на солнечный нагрев. Характеристика знойности погоды. Зависит от высоты солнца над горизонтом, облачности и скорости ветра. Ночью, в пасмурную погоду, а также при ветре 12 м/с и более поправка равна нулю.
P - Атмосферное давление - приведенное к уровню моря атмосферное давление.
Po - Атмосферное давление - измеренное на уровне метеостанции атмосферное давление.
Tmin - Минимальная температура - минимум температуры воздуха на высоте 2 м над землей.
Tmax - Максимальная температура - максимум температуры воздуха на высоте 2 м над землей.
R - Количество осадков - Количество выпавших осадков за период времени, мм. При наведении курсора мыши на число - период времени, за который выпало указанное количество осадков.
R24 - Количество осадков - Количество выпавших осадков за 24 часа, мм.
S - Снежный покров - Высота снежного покрова, см. При наведении курсора мыши на число - состояние снежного покрова и степень покрытия местности в баллах.